Regional Weather Roundup
Issued by NWS Columbia, SC

Home | Current Version | Previous Version | Text Only | Print | Product List | Glossary On
Versions: 1 2 3 4 5 6 7 8 9 10 11 12 13 14 15 16 17 18 19 20 21 22 23 24 25 26 27 28 29 30 31 32 33 34 35 36 37 38 39 40 41 42 43 44 45 46 47 48 49 50
000
ASUS42 KCAE 211310
RWRCAE
REGIONAL WEATHER ROUNDUP
NATIONAL WEATHER SERVICE COLUMBIA SC
900 AM EDT THU SEP 21 2017

NOTE: "FAIR" INDICATES FEW OR NO CLOUDS BELOW 12,000 FEET WITH NO
SIGNIFICANT WEATHER AND/OR OBSTRUCTIONS TO VISIBILITY.

NOT ALL STATIONS ARE QUALITY CONTROLLED BY THE NATIONAL
WEATHER SERVICE. USE DATA WITH CAUTION...ESPECIALLY
DEWPOINT OBSERVATIONS.

SCZ001>056-GAZ040-063>065-077-211400-
...UPSTATE SOUTH CAROLINA...

CITY           SKY/WX    TMP DP  RH WIND       PRES   REMARKS
ANDERSON       SUNNY     70  66  87 CALM      30.09R
LIBERTY        SUNNY     68  65  90 CALM      30.09S
SPARTANBURG    SUNNY     72  63  73 N6        30.08S
CLEMSON        SUNNY     72  67  84 CALM      30.10S
GREENVILLE     SUNNY     78  64  61 N7        30.10S
GREENWOOD      SUNNY     72  68  87 N5        30.09S
GREER          SUNNY     74  67  78 N3        30.09S
ROCK HILL        N/A    N/A N/A N/A MISG      30.08S
CHESTER        SUNNY     72  63  73 NE3       30.09R
LAURENS        SUNNY     72  66  83 N5        30.08S


...CENTRAL SOUTH CAROLINA...

CITY           SKY/WX    TMP DP  RH WIND       PRES   REMARKS
COLUMBIA APT   SUNNY     79  70  73 CALM      30.06S
COLUMBIA OWENS SUNNY     78  70  76 CALM      30.06S
MCENTIRE ANGB  SUNNY     75  74  96 NW5       30.05S
ORANGEBURG     SUNNY     75  70  84 W3        30.05R
SUMTER SHAW    SUNNY     76  69  80 N5        30.02S
NEWBERRY       SUNNY     72  68  88 CALM      30.10S
AIKEN          FAIR      73  70  88 CALM      30.10R
BARNWELL       FAIR      77  73  88 CALM      30.05S
MANNING        FAIR      75  70  83 CALM      30.05R
CAMDEN         FAIR      73  70  88 CALM      30.06S
LANCASTER      SUNNY     72  72 100 CALM      30.07S
WINNSBORO      SUNNY     72  70  94 CALM      30.06S


...EASTERN AND COASTAL SOUTH CAROLINA...

CITY           SKY/WX    TMP DP  RH WIND       PRES   REMARKS
MYRTLE BEACH   MOSUNNY   76  72  87 NW8       30.05S
N MYRTLE BCH   MOSUNNY   76  73  91 W6        30.03S
MARION         FAIR      73  70  88 CALM      30.05R FOG
FLORENCE       SUNNY     75  72  90 NW5       30.05S
DARLINGTON     SUNNY     74  71  91 CALM      30.05S
CHARLESTON APT MOSUNNY   78  75  90 W6        30.05R
BEAUFORT       MOSUNNY   79  77  94 CALM      30.05R


...EASTERN GEORGIA...

CITY           SKY/WX    TMP DP  RH WIND       PRES   REMARKS
AUGUSTA BUSH F SUNNY     74  72  93 CALM      30.05R FOG
AUGUSTA DANIEL SUNNY     78  71  79 N7        30.06R
THOMSON        SUNNY     72  68  88 N3        30.12R
CLAXTON        FAIR      75  72  91 CALM      30.06R
SYLVANIA       MOSUNNY   74  73  98 CALM      30.06S
STATESBORO     SUNNY     75  69  81 CALM      30.05S
SAVANNAH       MOSUNNY   77  74  90 S3        30.06R


...SOUTHERN NORTH CAROLINA...

CITY           SKY/WX    TMP DP  RH WIND       PRES   REMARKS
CHARLOTTE      MOSUNNY   73  66  78 N7        30.08S
MONROE         SUNNY     73  67  81 NE6       30.07R
WADESBORO      SUNNY     69  66  90 NW3       30.06R FOG
RUTHERFORDTON  SUNNY     72  65  78 W8        30.12R
ASHEVILLE      SUNNY     66  62  87 NW6       30.18S

$$



USA.gov is the U.S. government's official web portal to all federal, state and local government web resources and services.